Showing default

COSMOS 2168, 21782

Orbit data source: Space-Track

COSMOS 2168, 21782 is a payload satellite owned by UNKS RF (CIS) in LEO that was launched on Tue, 12 Nov 1991 UTC via a TSIKLON-3 launch vehicle from the Plesetsk Missile And Space Complex (PKMTR). Payload-class satellites include a variety of spacecraft equipped with specific instruments for various scientific and technological missions. These include communications satellites like Starlink; space stations such as the ISS; scientific satellites like the Hubble; Earth observation satellites from companies like Planet Labs, Umbra, and HawkEye 360; GPS; miniature CubeSats for education and research; and military/defense satellites.

Loading next visibility...
Identifier
21782, 1991-077D
Orbit
LEO
Country
Flag of CISCIS
Related business
Manufacturer
NPO PM
Mission
Defense Communications
Bus & Motor
STRELA-3, Unknown motor
Mass
225 kg wet, 225 kg dry
Launch date (UTC)
1991-11-12 (34 years ago)
Launch vehicle
TSIKLON-3
Launch site
Plesetsk Missile And Space Complex (PKMTR)
Object type
Payload
Rocket body
Debris
Shape & HBR
Cyl, 0.8 m
Radar Cross Section
1.257 m², Large (>1 m²)

Expand to show TLE details & history
Last TLE update: 7 hours ago

TLE from 7 hours ago
0 COSMOS 2168
1 21782U 91077D   25298.48413785  .00000037  00000-0  13883-3 0  9996
2 21782  82.6014   3.1757 0013503 194.7548 175.8792 12.65525125568110
Epoch: 2025-10-25T11:37Z
TLE epoch observation values (Epoch: 2025-10-25T11:37:09.510Z)
Latitude
10.50704°
Longitude
156.14523°
Altitude
1,412.691 km
Speed
7.15 km/s
True Right ascension
00h 18m 11s
True Declination
10° 27' 03"
Sunlit
Object was in full shadow at epoch
Visualization orbit readout
Latitude
Unknown
Longitude
Unknown
Altitude
Unknown
Speed
Unknown
Apparent Right ascension
Unknown
Apparent Declination
Unknown
Sunlit
N/A
Visualization observer readout
Local Sidereal Time
14:17:04
Azimuth
Unknown
Elevation
Unknown
Doppler factor
Unknown
Orbital elements
Apogee altitude
1,408.037 km
Perigee altitude
1,387.038 km
Semi-major axis
7,775.674 km
Eccentricity
0.00135
Inclination
82.6014°
RAAN
3.1757°
Arg. of periapsis
194.7548°
True anomaly
175.8903°
Mean anomaly
175.8792°
Eccentric anomaly
175.88475°
Mean motion
3.16545 °/min
Orbital period
113.73 mins
BSTAR
0.00013883
Loading maneuver chart data...
Computing Atmospheric mass density...
Loading historical data...
Loading historical data...
Loading historical data...
Loading historical data...
Loading historical data...
Loading historical data...
Loading historical data...

Documentation

Showing up to 5 results
|